User: anonymous   Login
Location: Irma
(52.9170°N, 111.2330°W)
Time: 04:52:57
(UTC-06:00)
Language:

Meteor 1-24 Rocket - Orbit

View from above orbital plane
View from above orbital plane
View from above satellite
View from above satellite

Ground track
Ground track

The orbit data is extracted from the following two-line orbital elements,

1  8800U 76032B   17204.53811277 +.00000179 +00000-0 +89826-4 0  9996
2  8800 081.2511 181.9743 0096701 082.6412 278.5736 14.10097800123313
Epoch (UTC): 23 July 2017 12:54:52
Eccentricity: 0.0096701
inclination: 81.2511°
perigee height: 789 km
apogee height: 929 km
right ascension of ascending node: 181.9743°
argument of perigee: 82.6412°
revolutions per day: 14.10097800
mean anomaly at epoch: 278.5736°
orbit number at epoch: 12331

The dashed part of the orbit path shows where the satellite is in the earth's shadow,  

DLR